Weather History for St. Joseph, MO

Change the Weather History Date:

Friday, November 23, 2012

  Actual Average Record
Temperature  
Mean Temperature 32 °F 38 °F  
Max Temperature 44 °F 49 °F 77 °F (1966)
Min Temperature 19 °F 28 °F 8 °F (2007)
Degree Days  
Heating Degree Days 33 27  
Month to date heating degree days 395 492  
Since 1 July heating degree days 896 911  
Cooling Degree Days 0 0  
Month to date cooling degree days 5 0  
Year to date cooling degree days 1565 1220  
Moisture  
Dew Point 14 °F    
Average Humidity 50    
Maximum Humidity 70    
Minimum Humidity 29    
Precipitation  
Precipitation 0.00 in 0.03 in 1.33 in (1931)
Month to date precipitation 1.79 1.26  
Year to date precipitation 22.31 33.79  
Sea Level Pressure  
Sea Level Pressure 30.44 in    
Wind  
Wind Speed 13 mph (NW)    
Max Wind Speed 37 mph    
Max Gust Speed 44 mph    
Visibility 10 miles    
Events      
T = Trace of Precipitation, MM = Missing Value Source: NWS Daily Summary

Daily Weather History Graph

Daily Weather History Graph

Search for Another Location

Airport:

Trip Planner

Search our weather history database for the weather conditions in past years. The results will help you decide how hot, cold, wet, or windy it might be!

Date:

Astronomy

Nov. 23, 2012 Rise Set
Actual Time 7:13 AM CST 4:58 PM CST
Civil Twilight 6:44 AM CST 5:27 PM CST
Nautical Twilight 6:11 AM CST 6:00 PM CST
Astronomical Twilight 5:38 AM CST 6:33 PM CST
Moon 2:12 PM CST (11/23) 2:34 AM CST (11/23)
Length of Visible Light 10h 43m
Length of Day
9h 44m
Waxing Gibbous, 80% of the Moon is Illuminated
Nov 23
Waxing Gibbous
Nov 28
Full
Dec 6
Last Quarter
Dec 13
New
Dec 19
First Quarter

Hourly Weather History & Observations

Time (CST) Temp. Windchill Dew Point Humidity Pressure Visibility Wind Dir Wind Speed Gust Speed Precip Events Conditions
12:53 AM 39.9 °F 33.9 °F 30.0 °F 68% 30.26 in 10.0 mi WNW 9.2 mph - N/A   Clear
1:53 AM 39.9 °F 32.9 °F 30.9 °F 70% 30.27 in 10.0 mi West 11.5 mph - N/A   Clear
2:53 AM 39.9 °F 31.8 °F 28.0 °F 63% 30.28 in 10.0 mi WNW 15.0 mph - N/A   Clear
3:53 AM 37.0 °F 25.9 °F 18.0 °F 46% 30.32 in 10.0 mi NW 23.0 mph 36.8 mph N/A   Clear
4:53 AM 35.1 °F 21.6 °F 17.1 °F 48% 30.36 in 10.0 mi NNW 31.1 mph 39.1 mph N/A   Overcast
5:53 AM 30.9 °F 18.7 °F 14.0 °F 50% 30.41 in 10.0 mi NW 19.6 mph 31.1 mph N/A   Clear
6:53 AM 28.9 °F 16.5 °F 15.1 °F 56% 30.44 in 10.0 mi NW 18.4 mph - N/A   Clear
7:53 AM 28.9 °F 16.9 °F 15.1 °F 56% 30.46 in 10.0 mi NNW 17.3 mph 25.3 mph N/A   Clear
8:53 AM 30.0 °F 17.9 °F 15.1 °F 54% 30.49 in 10.0 mi NW 18.4 mph 28.8 mph N/A   Clear
9:53 AM 32.0 °F 20.1 °F 14.0 °F 48% 30.51 in 10.0 mi NW 19.6 mph 27.6 mph N/A   Clear
10:53 AM 34.0 °F 23.4 °F 14.0 °F 44% 30.52 in 10.0 mi NW 17.3 mph 25.3 mph N/A   Clear
11:53 AM 35.1 °F 24.5 °F 12.9 °F 40% 30.50 in 10.0 mi NW 18.4 mph 25.3 mph N/A   Clear
12:53 PM 36.0 °F 25.6 °F 10.9 °F 36% 30.48 in 10.0 mi NW 18.4 mph 26.5 mph N/A   Clear
1:53 PM 37.9 °F 28.2 °F 10.9 °F 33% 30.47 in 10.0 mi NW 18.4 mph 24.2 mph N/A   Clear
2:53 PM 39.0 °F 31.0 °F 10.0 °F 30% 30.47 in 10.0 mi NW 13.8 mph 20.7 mph N/A   Clear
3:53 PM 37.0 °F 28.1 °F 8.1 °F 30% 30.47 in 10.0 mi NNW 15.0 mph - N/A   Clear
4:53 PM 35.1 °F 27.4 °F 9.0 °F 34% 30.47 in 10.0 mi NNW 10.4 mph - N/A   Clear
5:53 PM 30.9 °F 23.5 °F 9.0 °F 40% 30.48 in 10.0 mi NW 8.1 mph - N/A   Clear
6:53 PM 27.0 °F 20.5 °F 9.0 °F 47% 30.48 in 10.0 mi NW 5.8 mph - N/A   Clear
7:53 PM 26.1 °F 18.4 °F 9.0 °F 49% 30.49 in 10.0 mi NNW 6.9 mph - N/A   Clear
8:53 PM 24.1 °F - 12.0 °F 60% 30.48 in 10.0 mi Calm Calm - N/A   Clear
9:53 PM 25.0 °F - 10.0 °F 53% 30.48 in 10.0 mi Calm Calm - N/A   Clear
10:53 PM 21.0 °F - 10.9 °F 65% 30.47 in 10.0 mi Calm Calm - N/A   Clear
11:53 PM 19.9 °F - 12.9 °F 74% 30.46 in 10.0 mi Calm Calm - N/A   Clear